Theta_e
332 326 327 324 311 312 310 311 315 313 313 317 319 325 324 327 325 323 350 351 348 353 361 362 364 366 366 366 365 364 362 362 361 361 361 361 362 363 362 362 361 361 358 355 352 351 350 352 353
324 324 325 319 308 306 310 313 313 314 317 319 318 321 324 324 333 342 346 350 352 356 364 361 364 365 366 365 364 363 362 362 361 361 361 362 362 362 362 361 361 358 355 352 349 347 348 350 353
322 323 317 313 309 306 310 311 313 315 318 318 318 323 324 324 331 342 351 350 353 359 363 363 363 364 365 364 363 362 362 362 362 362 362 361 361 361 361 361 360 357 354 351 348 346 346 347 348
320 320 318 307 305 309 309 313 314 315 318 319 319 317 324 329 333 343 351 351 354 357 360 362 362 363 363 364 363 362 362 362 362 362 361 361 361 360 360 360 359 357 354 350 348 347 347 345 345
320 317 308 306 307 308 311 313 314 313 316 316 318 315 321 334 352 353 351 352 351 354 358 364 362 362 363 363 363 362 362 361 361 361 361 361 360 360 359 359 358 357 355 350 346 346 347 346 345
311 313 305 303 306 308 311 314 314 313 314 316 316 316 320 327 333 352 352 352 352 353 356 361 361 361 361 361 361 361 360 360 361 360 360 360 359 359 359 358 357 356 354 351 347 347 347 346 345
308 308 304 306 307 306 310 314 313 313 313 313 317 314 320 321 326 345 355 355 352 351 354 359 358 360 360 359 360 359 359 359 359 358 358 358 358 358 357 357 356 355 353 351 349 347 346 345 344
310 308 304 304 303 303 310 310 314 313 312 317 317 314 316 321 328 337 352 353 351 350 351 355 358 356 355 356 359 359 358 358 357 358 358 357 357 357 356 354 354 354 352 351 349 347 346 344 343
311 303 300 302 300 303 308 307 313 314 311 313 315 316 318 321 327 334 343 350 349 347 349 354 356 358 355 351 355 357 358 358 357 357 357 354 353 354 353 350 354 353 352 350 348 347 346 342 342
306 302 302 306 306 305 307 308 309 308 309 310 312 316 318 319 319 324 331 339 347 346 346 351 357 357 355 350 355 354 352 353 354 353 356 354 353 351 346 349 353 353 351 348 348 347 344 341 336
306 302 306 306 308 309 307 306 309 307 306 310 310 313 316 317 319 317 321 333 341 349 348 350 357 360 357 352 353 352 351 351 351 352 354 355 351 350 347 346 346 346 348 342 342 342 340 338 338
301 305 306 306 307 306 305 308 307 308 308 312 313 314 314 315 317 318 318 322 337 345 348 351 354 359 360 354 353 353 350 350 349 350 355 355 351 350 347 343 343 345 342 342 342 339 341 343 344
303 304 305 307 307 306 307 305 305 307 310 312 313 313 313 315 316 319 321 322 331 341 348 351 354 358 358 358 354 355 352 350 350 349 355 354 352 349 346 345 344 344 342 342 342 340 341 345 349
304 303 304 305 306 306 304 305 306 307 310 310 311 312 313 314 316 318 319 321 324 334 346 352 353 360 359 358 360 358 358 354 351 347 350 355 352 352 346 347 345 343 343 342 341 340 341 347 349
304 300 303 304 305 304 306 302 303 309 310 308 309 311 312 313 315 317 321 324 327 332 345 350 354 357 360 358 358 357 355 353 351 349 355 353 354 353 352 345 344 342 345 347 345 344 344 346 347
301 301 298 303 303 304 302 297 304 307 307 307 309 310 311 313 315 317 319 322 325 331 341 352 352 355 361 361 358 357 354 353 352 351 351 354 353 352 350 344 345 344 345 343 340 340 342 346 346
300 295 296 297 303 302 302 299 304 307 307 307 309 310 310 312 315 317 319 321 324 328 336 347 357 355 358 360 357 359 362 355 352 352 351 355 354 352 350 345 344 350 343 342 341 341 344 343 346
295 295 296 296 301 302 301 301 304 307 307 307 308 309 310 311 313 316 318 321 324 327 336 343 350 357 360 358 359 354 353 354 353 353 352 354 355 354 354 348 350 350 344 341 341 346 342 343 343
297 296 296 299 302 301 300 301 303 306 307 307 308 309 310 311 314 317 318 321 323 327 329 336 349 357 358 355 352 351 349 351 352 352 357 355 355 354 355 351 352 353 349 350 350 345 345 338 345
298 296 296 300 302 301 300 300 304 306 306 307 308 308 310 311 313 315 317 319 322 326 329 333 344 354 357 354 354 352 351 349 350 351 354 355 354 354 355 356 353 356 349 353 352 350 340 339 344
298 296 297 296 300 302 301 299 302 305 307 308 309 310 310 311 312 314 315 318 321 324 328 331 338 349 359 360 356 354 352 351 348 350 349 353 353 353 354 357 354 355 352 346 353 350 347 334 344
295 300 298 297 297 293 301 291 299 303 303 306 307 309 310 311 312 314 315 317 319 321 325 330 334 342 351 358 355 354 347 345 346 349 349 351 352 350 351 355 352 352 349 349 348 348 348 346 343
297 301 300 299 297 297 297 294 298 302 300 303 306 307 308 310 312 313 315 318 320 322 323 327 334 337 344 352 356 351 349 347 347 348 356 356 353 352 349 351 352 352 350 353 351 351 347 344 338
302 300 300 300 298 291 296 294 296 297 299 301 305 307 309 312 313 315 317 318 319 322 322 324 330 336 341 347 352 355 354 351 345 349 347 347 347 349 351 350 350 352 349 350 349 346 344 338 336
301 298 291 289 290 289 295 292 294 300 302 304 304 307 310 312 313 314 315 316 317 319 322 324 324 331 340 344 347 348 351 354 353 352 349 349 345 347 354 352 352 350 351 348 345 344 343 338 336
298 298 290 283 285 288 293 288 294 302 304 306 307 309 310 311 313 313 315 316 317 318 320 324 322 325 334 345 346 347 349 350 350 351 347 346 342 346 355 355 354 353 349 346 344 342 340 337 335
297 293 299 291 291 287 290 294 299 302 302 304 305 307 308 310 312 313 315 316 317 319 320 322 324 324 328 338 346 348 351 352 349 353 352 346 350 344 349 352 352 352 351 350 350 344 343 342 340
297 300 291 293 282 281 287 289 291 297 299 302 303 304 307 309 310 312 313 314 317 319 320 322 325 325 326 332 338 340 342 341 338 339 339 338 338 338 339 342 346 347 347 348 350 350 348 345 341
296 293 294 293 292 284 282 288 298 297 299 301 303 303 306 308 309 310 311 313 315 316 317 321 320 323 325 328 331 331 330 331 332 332 333 333 336 336 334 336 338 340 342 345 347 348 346 343 344
297 294 295 289 287 289 288 288 300 301 303 304 303 305 307 309 309 310 310 311 311 312 314 317 320 319 322 323 326 326 328 329 330 330 331 332 333 333 332 332 332 333 336 340 340 339 339 339 338
Wind_Speed
15 11 6 7 9 7 11 8 1 3 3 6 3 7 7 6 9 6 3 10 14 17 19 19 15 14 13 13 14 17 17 17 17 17 16 16 15 14 13 12 11 11 12 12 12 11 11 11 11
10 11 7 5 10 10 10 8 9 6 7 4 3 5 5 3 3 4 7 10 14 16 17 20 17 15 14 14 15 16 18 17 17 17 16 16 15 14 13 12 12 12 12 12 12 11 10 10 11
10 7 8 5 10 11 2 8 5 3 3 6 1 1 4 5 5 4 6 12 17 16 17 18 17 16 15 15 15 15 16 18 17 17 16 15 14 14 13 12 11 12 12 12 11 10 9 9 10
5 6 5 10 13 6 3 4 1 1 2 6 4 2 1 11 7 7 12 13 16 16 17 19 16 17 16 14 14 15 15 16 16 16 16 15 14 13 12 11 11 11 12 12 11 10 9 9 8
6 5 11 12 16 3 5 4 4 4 3 4 9 3 3 10 10 6 11 11 14 15 15 17 15 17 17 16 15 14 14 14 14 14 15 14 13 12 11 11 11 11 10 10 10 10 8 8 8
8 6 12 16 15 7 8 5 8 8 4 6 4 6 7 9 10 5 8 9 13 15 14 16 14 15 16 16 14 13 14 14 13 13 13 13 12 12 12 11 10 10 9 9 9 8 8 7 7
15 10 16 18 12 10 12 3 9 7 6 6 10 8 5 10 12 2 6 7 11 14 15 16 16 14 13 14 15 14 14 14 12 11 10 10 10 10 10 9 8 8 8 8 8 7 6 6 7
8 9 17 14 11 17 8 7 6 10 8 5 7 5 3 11 10 2 6 8 12 14 15 16 17 18 17 16 14 15 14 14 15 12 9 9 9 9 9 8 8 8 8 7 7 7 7 7 6
5 10 13 17 13 13 7 10 6 4 11 10 10 11 9 10 6 2 5 9 11 13 15 15 17 17 17 17 15 12 13 13 13 14 10 9 10 11 12 11 13 9 9 8 7 7 6 6 8
12 12 16 6 8 9 11 11 11 11 13 13 13 14 13 9 10 7 8 10 13 14 15 14 15 16 16 13 15 16 14 13 13 13 14 11 11 10 8 9 8 8 8 8 7 7 7 8 9
11 13 10 9 13 14 15 13 13 13 15 15 15 13 13 14 12 11 11 13 13 14 12 15 15 14 15 13 10 9 9 10 10 15 13 13 10 8 8 6 7 8 9 8 9 9 8 9 6
9 13 11 12 11 13 17 14 14 13 14 13 15 15 14 15 15 14 12 13 12 14 15 16 16 15 16 11 11 11 10 10 10 13 15 11 9 9 8 7 8 8 7 9 7 6 6 6 7
13 8 9 12 12 12 14 16 16 16 11 14 12 12 13 14 15 14 12 12 12 14 15 17 17 17 16 15 12 12 12 11 12 13 15 12 11 10 10 9 8 7 8 8 7 6 6 7 7
7 6 9 9 11 11 13 16 14 8 8 12 12 12 12 13 12 13 12 13 12 15 16 17 19 17 16 15 14 11 10 12 12 12 13 16 12 9 11 10 10 9 7 7 6 6 6 7 6
6 9 10 12 13 10 8 16 18 12 10 9 11 11 13 13 13 11 10 9 10 12 14 15 18 18 18 18 15 13 11 12 12 12 13 15 13 13 11 10 10 10 8 8 6 6 7 8 7
10 7 12 9 6 6 6 12 6 2 8 10 13 12 12 14 13 10 13 12 10 11 13 15 13 16 17 17 15 12 12 11 13 12 12 16 16 15 13 10 9 8 7 8 7 7 7 7 6
9 11 8 4 8 7 11 10 4 8 15 14 13 14 13 11 11 10 11 11 11 11 13 14 16 19 18 15 13 14 14 13 12 13 13 17 14 16 13 11 10 10 9 9 8 7 7 7 7
5 10 8 10 3 9 14 16 15 12 13 14 13 13 12 13 12 11 12 12 14 11 10 13 14 17 17 13 12 12 13 13 12 11 12 15 13 16 13 12 11 11 10 10 9 8 8 8 7
6 8 11 9 10 13 15 16 16 15 16 16 15 14 14 16 13 12 11 10 12 14 13 14 15 14 13 13 14 14 14 13 13 13 14 16 15 17 15 12 13 13 12 11 11 10 9 8 7
11 12 12 10 9 10 16 18 17 18 19 16 16 16 18 17 17 15 15 14 10 13 14 14 17 17 17 13 11 12 10 11 11 12 13 15 16 17 15 14 10 13 11 12 12 12 9 8 7
12 12 11 13 13 14 20 18 17 12 11 13 16 17 18 19 20 18 16 15 13 13 13 14 16 17 18 18 12 10 10 10 10 12 13 14 17 16 16 14 13 8 7 10 11 11 12 9 7
12 4 8 13 14 14 14 17 17 15 15 15 15 16 14 18 19 20 18 15 16 14 13 13 16 16 17 18 15 16 15 14 13 13 13 13 18 17 16 14 13 11 10 9 6 7 9 8 7
12 5 12 15 17 19 18 17 14 16 15 14 15 14 18 18 14 14 14 15 15 14 14 13 13 16 18 17 18 16 18 13 10 11 13 14 13 16 16 15 15 13 10 8 10 11 10 7 8
6 13 17 17 14 15 15 11 6 11 16 17 17 17 14 14 12 11 11 12 13 14 14 13 13 15 17 19 21 19 18 16 13 13 12 11 11 11 15 16 14 12 10 12 12 12 14 10 8
10 13 11 11 11 12 7 11 12 13 10 15 10 10 10 9 10 11 13 15 15 16 16 13 16 15 17 20 21 22 21 17 15 13 13 12 11 11 14 16 15 13 13 14 11 14 13 14 12
3 8 8 9 11 16 18 8 2 11 2 5 5 8 10 11 13 13 12 14 15 17 17 15 14 16 16 17 16 15 16 11 13 14 11 12 12 11 12 15 15 16 16 16 15 12 13 11 12
6 9 7 10 15 14 11 10 8 6 3 4 9 9 9 11 13 14 15 14 16 15 16 15 15 14 15 15 15 16 14 16 15 14 13 10 9 8 10 12 14 14 14 15 14 11 12 10 9
9 5 5 6 6 8 8 15 10 3 8 10 10 14 13 13 13 13 13 14 14 14 15 14 11 13 13 11 12 12 13 14 12 12 13 10 10 9 11 11 11 11 12 12 12 10 12 11 10
8 10 6 5 4 5 9 6 6 11 12 7 12 15 14 13 14 13 13 13 14 14 14 14 13 8 7 8 11 12 11 13 12 11 11 10 10 10 10 11 10 10 11 12 11 11 12 14 13
9 10 10 8 9 8 12 17 5 10 10 10 20 15 15 13 13 13 14 15 14 14 15 12 14 8 11 7 6 7 6 8 9 11 12 12 12 12 11 11 11 12 11 10 11 11 11 11 10
Wind_Direction
290 314 289 247 237 235 230 170 96 153 172 2 303 296 352 344 337 11 54 146 135 149 150 158 140 143 145 147 152 154 155 156 156 156 157 153 154 145 143 142 141 136 137 134 130 133 137 138 137
310 314 237 276 254 213 194 138 177 65 14 344 173 252 242 67 25 74 119 140 159 146 153 161 146 148 149 152 157 160 158 158 157 158 159 157 152 146 147 149 146 145 142 137 137 140 142 146 151
276 287 275 253 242 246 137 187 88 10 12 23 343 313 351 30 56 20 88 154 153 154 161 151 152 147 151 159 162 160 161 157 158 159 163 158 152 150 154 154 150 151 148 146 147 147 155 161 165
260 208 220 249 228 217 312 141 339 341 112 30 347 74 199 40 358 347 139 153 156 162 167 140 155 147 149 157 159 160 159 155 159 162 161 158 153 154 155 155 157 156 155 155 153 154 162 167 167
227 254 250 232 241 156 228 270 295 305 327 358 333 37 63 53 49 73 139 161 168 167 171 158 160 152 152 159 161 157 152 154 159 164 160 158 154 159 159 160 160 160 159 159 161 165 169 169 172
223 261 234 232 224 209 252 250 279 282 290 318 312 317 74 75 35 105 162 175 177 169 170 162 166 160 158 158 163 160 157 156 161 164 162 159 159 163 163 163 163 163 161 161 169 173 176 173 178
241 214 241 247 238 245 253 274 262 284 273 278 335 291 97 35 17 64 177 184 184 172 174 165 177 176 166 163 162 165 163 158 156 157 161 161 160 165 163 165 166 164 163 165 169 177 187 187 191
242 247 242 248 245 242 250 248 261 265 287 357 284 256 145 5 2 358 194 185 188 179 185 177 180 182 189 180 172 168 168 163 154 157 161 163 162 169 167 165 173 170 169 175 180 186 195 203 211
232 236 237 223 229 241 252 253 166 293 276 271 277 286 305 322 328 327 222 203 196 191 195 190 182 186 193 185 176 176 174 170 165 159 161 166 202 188 180 201 154 182 180 183 194 199 207 220 230
213 226 235 247 235 241 238 258 280 283 268 265 261 270 273 284 303 288 235 228 210 205 200 197 191 192 195 192 180 192 190 196 198 192 185 206 209 200 217 175 163 190 190 197 206 213 219 228 235
206 242 230 235 247 256 266 267 263 265 264 270 278 284 289 286 282 279 276 247 223 212 213 209 189 202 200 203 185 194 191 196 197 200 195 199 199 200 201 195 194 207 196 211 199 202 226 228 263
212 233 244 247 254 249 261 272 266 257 266 274 275 273 274 275 274 270 268 265 239 207 215 212 198 201 203 200 194 193 200 193 198 196 196 199 202 194 199 204 195 205 195 217 213 215 244 251 253
228 209 229 245 251 255 267 262 268 269 275 272 274 274 270 266 269 269 269 268 250 235 214 216 211 200 203 207 197 202 202 197 199 192 192 201 199 199 195 193 204 203 212 198 218 225 224 230 241
182 224 227 243 251 250 257 269 258 247 243 263 273 275 273 270 268 274 270 264 249 243 221 217 213 204 202 207 209 197 197 196 201 199 196 202 202 192 199 194 197 201 218 222 221 221 235 228 241
179 228 220 241 248 259 295 262 250 245 261 268 270 275 279 267 269 274 279 285 276 243 239 218 218 209 205 204 217 205 198 211 203 203 197 197 209 197 204 208 202 200 199 216 224 236 235 252 240
221 240 245 157 228 214 240 268 263 348 276 268 278 279 276 274 277 282 283 288 284 269 238 221 217 217 211 208 210 211 210 203 208 206 200 201 200 214 206 204 205 208 203 210 213 224 229 246 245
197 254 216 243 195 260 234 285 297 268 287 281 279 279 276 274 276 281 291 293 297 280 253 234 216 217 213 214 211 215 210 211 212 208 212 198 204 212 211 212 210 197 199 202 219 220 238 247 249
219 231 208 255 218 247 270 271 274 276 283 283 286 280 275 277 278 284 292 296 294 282 252 248 234 220 213 215 211 215 216 212 215 213 211 208 205 216 210 215 209 202 213 207 206 218 213 241 262
261 261 263 270 272 274 274 279 282 284 283 279 276 273 271 273 269 282 277 277 285 284 271 240 222 217 210 204 208 210 213 210 211 213 206 209 210 212 212 223 200 203 213 218 198 204 214 231 226
241 251 257 268 258 271 280 279 286 279 274 276 274 276 279 277 278 272 273 275 269 274 271 256 236 217 207 204 210 218 214 212 219 213 207 212 211 212 212 218 223 203 219 210 209 208 211 215 210
232 258 278 289 304 275 263 279 275 267 247 248 265 273 273 272 277 280 283 275 283 281 274 264 245 234 215 217 201 203 214 218 210 219 211 211 213 210 211 205 217 214 227 216 207 203 216 213 188
266 279 270 286 288 290 327 290 281 283 282 281 284 290 277 287 288 283 287 277 284 287 291 274 260 239 227 213 210 200 203 200 209 214 214 207 210 217 209 208 206 202 198 211 186 209 221 210 185
278 331 289 294 288 292 282 276 291 292 285 302 326 321 309 300 313 321 313 312 307 295 288 285 265 250 231 215 222 203 215 211 212 214 213 208 195 208 205 204 199 193 192 175 157 176 171 156 129
311 274 276 274 270 266 275 278 296 313 335 319 322 305 323 354 321 323 327 325 320 315 302 286 264 248 233 222 211 218 212 220 207 206 201 198 196 194 209 204 203 188 181 180 178 179 177 172 153
248 268 273 267 236 263 6 299 284 322 1 326 320 331 330 330 336 338 355 344 343 341 330 303 276 250 234 222 216 217 218 211 214 207 214 193 199 199 192 202 204 199 195 199 192 196 181 191 182
271 305 279 288 287 310 317 263 272 341 185 341 340 336 342 339 333 318 320 329 331 342 339 329 291 269 243 227 216 217 213 211 216 208 217 210 207 199 192 200 206 209 212 215 209 205 207 193 212
153 244 1 295 269 258 254 247 259 98 199 330 334 335 339 332 331 338 334 324 323 329 340 342 321 284 261 231 230 214 205 210 208 204 207 202 205 190 195 205 212 215 220 217 209 223 229 223 227
270 63 236 219 280 284 298 305 291 314 357 330 330 337 330 328 326 328 331 340 334 333 332 353 341 302 273 251 233 219 202 197 192 187 191 186 185 199 178 193 202 216 222 223 214 212 219 215 213
178 219 218 288 243 282 298 293 57 313 300 297 297 329 315 322 321 324 328 332 328 334 339 333 354 330 293 244 229 216 199 196 186 185 188 186 181 187 190 193 192 197 206 212 209 214 221 218 219
280 270 240 224 236 227 282 284 332 347 336 288 295 317 316 313 315 317 322 324 329 330 333 345 334 3 333 213 228 227 227 201 189 192 184 188 185 184 187 188 191 189 188 185 196 195 177 193 193